Location: ??????????
(54.4061°N, 22.6114°E)
Time: 20:11:30
(UTC+00:00)

Cosmos 972 Rocket - Pass Details

Date: 23 October 2019
Orbit: 713 x 1151 km, 75.8° (Epoch: 19 November)

Event Time Altitude Azimuth Distance (km) Brightness Sun altitude
Rises 18:03:33 0° 337° (NNW) 3,243 7.8 -25.1°
Reaches altitude 10° 18:05:51 10° 340° (NNW) 2,358 6.9 -25.4°
Enters shadow 18:10:58 64° 50° (NE) 932 4.2 -26.2°
